Location: Crescent
(42.8242°N, 73.7329°W)
Time: 08:38:04
(UTC+00:00)

Vanguard 1 - Pass Details

Date: 16 February 2026
Orbit: 653 x 3818 km, 34.2° (Epoch: 12 March)

Event Time Altitude Azimuth Distance (km) Brightness Sun altitude
Rises 01:43:16 0° 278° (W) 6,673 15.3 -36.3°
Reaches altitude 10° 01:47:21 10° 274° (W) 5,987 14.7 -37.0°
Maximum altitude 02:06:34 51° 207° (SSW) 4,389 13.1 -40.3°
Enters shadow 02:13:54 42° 168° (SSE) 4,761 13.1 -41.5°
Drops below altitude 10° 02:27:46 10° 139° (SE) 6,494 - -43.8°
Sets 02:32:29 0° 135° (SE) 7,242 - -44.5°
